Overview Statistics Trail Chart Weather Telemetry Raw packets
 

This is the latest recevied telemetry packets stored in our database for station/object DB9VE-12. If no packets are shown the sender has not sent any telemetry packets the latest 10 day(s).

Telemetry packets is used to share measurements like repeteater parameters, battery voltage, radiation readings (or any other measurements).

<< 1 2 3 4 >>
Time Press* Temp.in* Hum* QNH* Temp.out*
1778180044 973 hPa 20.2 C deg 40.5 % 1012.6 hPa 0 C deg
1778178270 972.8 hPa 20.5 C deg 40.1 % 1012.4 hPa 0 C deg
1778176135 972.7 hPa 20.8 C deg 39.7 % 1012.3 hPa 0 C deg
1778175882 972.6 hPa 20.8 C deg 39.7 % 1012.2 hPa 0 C deg
1778173061 972.6 hPa 21.1 C deg 38.6 % 1012.1 hPa 0 C deg
1778169700 972.5 hPa 21.3 C deg 37.8 % 1012 hPa 0 C deg
1778169013 972.5 hPa 21.2 C deg 37.8 % 1012 hPa 0 C deg
1778166508 972.4 hPa 21.1 C deg 38.3 % 1011.9 hPa 0 C deg
1778164688 972.5 hPa 21.2 C deg 37.7 % 1012 hPa 0 C deg
1778162878 972.6 hPa 21.2 C deg 37.7 % 1012.1 hPa 0 C deg
1778160287 972.6 hPa 21.1 C deg 37.8 % 1012.1 hPa 0 C deg
1778159705 972.6 hPa 21.1 C deg 37.9 % 1012.1 hPa 0 C deg
1778157888 972.7 hPa 21.2 C deg 38 % 1012.2 hPa 0 C deg
1778156071 972.6 hPa 21 C deg 38.2 % 1012.1 hPa 0 C deg
1778154278 972.4 hPa 20.8 C deg 38.8 % 1012 hPa 0 C deg
1778152439 972.4 hPa 20.7 C deg 39.1 % 1012 hPa 0 C deg
1778150622 972.4 hPa 20.7 C deg 39.2 % 1011.9 hPa 0 C deg
1778148808 972.3 hPa 20.6 C deg 39.6 % 1011.9 hPa 0 C deg
1778146993 972.2 hPa 20.5 C deg 39.9 % 1011.8 hPa 0 C deg
1778143966 971.7 hPa 20.1 C deg 41 % 1011.3 hPa 0 C deg
1778140654 971.6 hPa 19.7 C deg 41.6 % 1011.3 hPa 0 C deg
1778138841 971.2 hPa 19.1 C deg 42.4 % 1011 hPa 0 C deg
1778136710 971 hPa 19.4 C deg 42.1 % 1010.7 hPa 0 C deg
1778134854 970.8 hPa 19.5 C deg 41.8 % 1010.5 hPa 0 C deg
1778133039 970.5 hPa 19.5 C deg 41.9 % 1010.1 hPa 0 C deg
*Used Equation Coefficients:
Press: 0, 1, 0
Temp.in: 0, 1, 0
Hum: 0, 1, 0
QNH: 0, 1, 0
Temp.out: 0, 1, 0

  • The parameter names for the analog channels will be Value1, Value2, Value3 (up to Value5) if station has not sent a PARAM-packet that specifies the parameter names for each analog channel.
  • Each analog value is a decimal number between 000 and 255 (according to APRS specifications). The receiver use the telemetry equation coefficientsto to restore the original sensor values. If no EQNS-packet with equation coefficients is sent we will show the values as is (this corresponds to the equation coefficients a=0, b=1 and c=0).
    The sent equation coefficients is used in the equation: a * value2 + b * value + c.
  • The units for the analog values will not be shown if station has not sent a UNIT-packet specifying what unit's to use.
  • The parameter names for the digital bits will be Bit1, Bit2, Bit3 (up to Bit8) if station has not sent a PARAM-packet that specifies the parameter names for each digital bit.
  • All bit labels will be named "On" if station has not sent a UNIT-packet that specifies the label of each bit.
  • A bit is considered to be On when the bit is 1 if station has not sent a BITS-packet that specifies another "Bit sense" (a BITS-packet specify the state of the bits that match the BIT labels)